Time,TemperatureF,DewpointF,PressureIn,WindDirection,WindDirectionDegrees,WindSpeedMPH,WindSpeedGustMPH,Humidity,HourlyPrecipIn,Conditions,Clouds,dailyrainin,SoftwareType,DateUTC
2013-09-03 00:23:00,69.0,65.0,29.87,WNW,294,0.0,0.0,87,0.00,,,0.00,,2013-09-03 05:23:00,
2013-09-03 00:52:00,69.0,65.0,29.88,WNW,294,0.0,0.0,88,0.00,,,0.00,,2013-09-03 05:52:00,
2013-09-03 01:12:00,68.0,65.0,29.88,WNW,294,0.0,0.0,89,0.00,,,0.00,,2013-09-03 06:12:00,
2013-09-03 01:22:00,68.0,65.0,29.88,WNW,294,0.0,0.0,90,0.00,,,0.00,,2013-09-03 06:22:00,
2013-09-03 01:52:00,67.0,64.0,29.88,WNW,294,0.0,0.0,90,0.00,,,0.00,,2013-09-03 06:52:00,
2013-09-03 02:12:00,67.0,64.0,29.88,WNW,294,0.0,0.0,91,0.00,,,0.00,,2013-09-03 07:12:00,
2013-09-03 02:22:00,67.0,64.0,29.88,WNW,294,0.0,0.0,90,0.00,,,0.00,,2013-09-03 07:22:00,
2013-09-03 02:52:00,66.0,63.0,29.89,WNW,294,0.0,0.0,91,0.00,,,0.00,,2013-09-03 07:52:00,
2013-09-03 03:22:00,66.0,64.0,29.89,WNW,294,0.0,0.0,92,0.00,,,0.00,,2013-09-03 08:22:00,
2013-09-03 03:52:00,65.0,63.0,29.89,WNW,294,0.0,0.0,92,0.00,,,0.00,,2013-09-03 08:52:00,
2013-09-03 04:11:00,65.0,63.0,29.89,WNW,294,0.0,0.0,92,0.00,,,0.00,,2013-09-03 09:11:00,
2013-09-03 04:21:00,65.0,63.0,29.90,WNW,294,0.0,0.0,92,0.00,,,0.00,,2013-09-03 09:21:00,
2013-09-03 04:53:00,64.0,62.0,29.90,WNW,294,0.0,0.0,92,0.00,,,0.00,,2013-09-03 09:53:00,
2013-09-03 05:23:00,64.0,62.0,29.91,WNW,294,0.0,0.0,92,0.00,,,0.00,,2013-09-03 10:23:00,
2013-09-03 05:53:00,64.0,62.0,29.91,WNW,294,0.0,0.0,93,0.00,,,0.00,,2013-09-03 10:53:00,
2013-09-03 06:23:00,64.0,62.0,29.93,WNW,294,0.0,0.0,93,0.00,,,0.00,,2013-09-03 11:23:00,
2013-09-03 06:52:00,64.0,62.0,29.93,WNW,294,0.0,0.0,93,0.00,,,0.00,,2013-09-03 11:52:00,
2013-09-03 07:12:00,64.0,62.0,29.93,ENE,78,0.0,0.0,93,0.00,,,0.00,,2013-09-03 12:12:00,
2013-09-03 07:21:00,64.0,62.0,29.94,ENE,78,0.0,0.0,93,0.00,,,0.00,,2013-09-03 12:21:00,
2013-09-03 07:52:00,65.0,63.0,29.95,ENE,78,0.0,0.0,93,0.01,,,0.01,,2013-09-03 12:52:00,
2013-09-03 08:11:00,65.0,63.0,29.96,ENE,78,0.0,0.0,93,0.01,,,0.01,,2013-09-03 13:11:00,
2013-09-03 08:21:00,66.0,64.0,29.96,ENE,78,0.0,0.0,94,0.01,,,0.01,,2013-09-03 13:21:00,
2013-09-03 08:52:00,69.0,67.0,29.97,NNE,22,0.0,1.0,94,0.00,,,0.01,,2013-09-03 13:52:00,
2013-09-03 09:21:00,73.0,67.0,29.97,NNE,26,0.0,1.0,82,0.00,,,0.01,,2013-09-03 14:21:00,
2013-09-03 09:52:00,76.0,68.0,29.98,NE,43,0.0,1.0,77,0.00,,,0.00,,2013-09-03 14:52:00,
2013-09-03 10:22:00,79.0,69.0,29.98,East,101,1.0,4.0,71,0.00,,,0.00,,2013-09-03 15:22:00,
2013-09-03 10:54:00,80.0,70.0,29.98,ESE,106,0.0,1.0,71,0.00,,,0.00,,2013-09-03 15:54:00,
2013-09-03 11:14:00,81.0,70.0,29.98,West,264,0.0,1.0,70,0.00,,,0.00,,2013-09-03 16:14:00,
2013-09-03 11:24:00,81.0,69.0,29.98,South,186,0.0,1.0,68,0.00,,,0.00,,2013-09-03 16:24:00,
2013-09-03 11:54:00,83.0,69.0,29.98,SW,229,0.0,1.0,63,0.00,,,0.00,,2013-09-03 16:54:00,
2013-09-03 12:23:00,83.0,68.0,29.97,WSW,242,0.0,3.0,60,0.00,,,0.00,,2013-09-03 17:23:00,
2013-09-03 12:52:00,84.0,68.0,29.96,WNW,292,1.0,6.0,59,0.00,,,0.00,,2013-09-03 17:52:00,
2013-09-03 13:22:00,83.0,67.0,29.96,West,263,1.0,4.0,59,0.00,,,0.00,,2013-09-03 18:22:00,
2013-09-03 13:52:00,85.0,68.0,29.96,NNW,343,0.0,2.0,56,0.00,,,0.00,,2013-09-03 18:52:00,
2013-09-03 14:11:00,85.0,67.0,29.96,West,265,0.0,6.0,55,0.00,,,0.00,,2013-09-03 19:11:00,
2013-09-03 14:22:00,86.0,70.0,29.96,NW,325,1.0,5.0,59,0.00,,,0.00,,2013-09-03 19:22:00,
2013-09-03 14:52:00,84.0,69.0,29.95,WNW,291,0.0,0.0,61,0.00,,,0.00,,2013-09-03 19:52:00,
2013-09-03 15:11:00,83.0,68.0,29.94,West,280,0.0,1.0,60,0.00,,,0.00,,2013-09-03 20:11:00,
2013-09-03 15:22:00,85.0,69.0,29.94,WNW,288,0.0,3.0,59,0.00,,,0.00,,2013-09-03 20:22:00,
2013-09-03 15:42:00,84.0,69.0,29.94,WNW,295,0.0,2.0,61,0.00,,,0.00,,2013-09-03 20:42:00,
2013-09-03 15:53:00,83.0,69.0,29.94,WNW,295,0.0,1.0,62,0.00,,,0.00,,2013-09-03 20:53:00,
2013-09-03 16:22:00,84.0,69.0,29.94,NNW,333,0.0,2.0,60,0.00,,,0.00,,2013-09-03 21:22:00,
2013-09-03 16:54:00,85.0,69.0,29.94,WNW,291,0.0,2.0,59,0.00,,,0.00,,2013-09-03 21:54:00,
2013-09-03 17:23:00,83.0,69.0,29.94,NW,312,0.0,1.0,63,0.00,,,0.00,,2013-09-03 22:23:00,
2013-09-03 17:53:00,83.0,67.0,29.94,WNW,303,0.0,3.0,59,0.00,,,0.00,,2013-09-03 22:53:00,
2013-09-03 18:22:00,83.0,68.0,29.94,WNW,290,0.0,1.0,61,0.00,,,0.00,,2013-09-03 23:22:00,
2013-09-03 18:54:00,81.0,69.0,29.94,WNW,290,0.0,0.0,66,0.00,,,0.00,,2013-09-03 23:54:00,
2013-09-03 19:12:00,80.0,68.0,29.94,WNW,290,0.0,0.0,67,0.00,,,0.00,,2013-09-04 00:12:00,
2013-09-03 19:22:00,78.0,67.0,29.95,WNW,290,0.0,0.0,70,0.00,,,0.00,,2013-09-04 00:22:00,
2013-09-03 19:42:00,77.0,67.0,29.95,WNW,290,0.0,0.0,72,0.00,,,0.00,,2013-09-04 00:42:00,
2013-09-03 19:52:00,76.0,67.0,29.95,WNW,290,0.0,0.0,74,0.00,,,0.00,,2013-09-04 00:52:00,
2013-09-03 20:22:00,73.0,66.0,29.96,WNW,290,0.0,0.0,78,0.00,,,0.00,,2013-09-04 01:22:00,
2013-09-03 20:42:00,72.0,65.0,29.97,WNW,290,0.0,0.0,80,0.00,,,0.00,,2013-09-04 01:42:00,
2013-09-03 20:53:00,71.0,65.0,29.97,WNW,290,0.0,0.0,82,0.00,,,0.00,,2013-09-04 01:53:00,
2013-09-03 21:11:00,70.0,65.0,29.97,WNW,290,0.0,0.0,83,0.00,,,0.00,,2013-09-04 02:11:00,
2013-09-03 21:22:00,69.0,64.0,29.98,WNW,290,0.0,0.0,85,0.00,,,0.00,,2013-09-04 02:22:00,
2013-09-03 21:42:00,69.0,65.0,29.99,WNW,290,0.0,0.0,86,0.00,,,0.00,,2013-09-04 02:42:00,
2013-09-03 21:52:00,68.0,64.0,29.99,WNW,290,0.0,0.0,87,0.00,,,0.00,,2013-09-04 02:52:00,
2013-09-03 22:22:00,67.0,63.0,30.00,WNW,290,0.0,0.0,88,0.00,,,0.00,,2013-09-04 03:22:00,
2013-09-03 22:54:00,66.0,63.0,30.01,WNW,290,0.0,0.0,89,0.00,,,0.00,,2013-09-04 03:54:00,
2013-09-03 23:14:00,66.0,63.0,30.01,WNW,290,0.0,0.0,90,0.00,,,0.00,,2013-09-04 04:14:00,
2013-09-03 23:54:00,65.0,62.0,30.01,WNW,290,0.0,0.0,90,0.00,,,0.00,,2013-09-04 04:54:00,